Simultaneous Nadir Overpasses (SNOs) Predictions

Prediction of SNOs between AQUA and LANDSAT-8 Satellite Orbit:

Table of predicted SNOs for the next 14.0 days since TLE Epoch: 2/13/2025
Index Date (AQUA) Time (AQUA) Lat,Lon (AQUA) SZA (AQUA ) Date (LANDSAT-8) Time (LANDSAT-8) Lat,Lon (LANDSAT-8) SZA (LANDSAT-8 ) Distance(km) Time Diff (sec)
1 02/13/2025 20:58:42 74.28,-128.31 87.26 02/13/2025 20:57:36 74.26,-130.77 87.22 74.21 66
2 02/13/2025 21:48:08 -74.68, 38.38 92.37 02/13/2025 21:46:56 -74.65, 37.81 92.40 17.20 72
3 02/13/2025 22:37:30 74.78,-154.22 87.73 02/13/2025 22:36:19 74.78,-154.23 87.72 0.73 71
4 02/13/2025 23:26:48 -74.77, 13.48 92.30 02/13/2025 23:25:46 -74.81, 13.48 92.26 3.79 62
5 02/14/2025 00:16:08 74.78,-178.86 87.70 02/14/2025 00:15:12 74.78,-178.94 87.70 2.42 56
6 02/14/2025 01:05:27 -74.82, -11.29 92.28 02/14/2025 01:04:39 -74.81, -11.23 92.28 1.70 48
7 02/14/2025 01:54:47 74.82, 156.37 87.72 02/14/2025 01:54:04 74.84, 156.48 87.74 3.63 43
8 02/14/2025 02:44:05 -74.81, -35.93 92.31 02/14/2025 02:43:32 -74.81, -35.94 92.30 0.80 33
9 02/14/2025 03:33:25 74.81, 131.73 87.69 02/14/2025 03:32:57 74.84, 131.77 87.72 3.15 28
10 02/14/2025 04:22:43 -74.80, -60.57 92.34 02/14/2025 04:22:25 -74.82, -60.65 92.32 3.15 18
11 02/14/2025 05:12:04 74.86, 106.96 87.71 02/14/2025 05:11:50 74.84, 107.06 87.70 3.23 14
12 02/14/2025 06:01:22 -74.85, -85.34 92.32 02/14/2025 06:01:18 -74.82, -85.36 92.34 2.68 4
13 02/14/2025 06:50:42 74.85, 82.32 87.68 02/14/2025 06:50:43 74.85, 82.34 87.68 0.86 1
14 02/14/2025 07:40:00 -74.84,-109.98 92.35 02/14/2025 07:40:11 -74.83,-110.08 92.36 3.18 11
15 02/14/2025 08:29:20 74.84, 57.68 87.65 02/14/2025 08:29:36 74.85, 57.63 87.66 1.51 16
16 02/14/2025 09:18:39 -74.88,-134.75 92.33 02/14/2025 09:19:03 -74.88,-134.66 92.33 2.67 24
17 02/14/2025 10:07:59 74.89, 32.90 87.67 02/14/2025 10:08:29 74.86, 32.92 87.64 3.66 30
18 02/14/2025 10:57:17 -74.88,-159.39 92.36 02/14/2025 10:57:56 -74.89,-159.37 92.35 1.17 39
19 02/14/2025 11:46:37 74.88, 8.26 87.64 02/14/2025 11:47:22 74.86, 8.21 87.62 2.91 45
20 02/14/2025 12:35:55 -74.87, 175.97 92.39 02/14/2025 12:36:49 -74.89, 175.92 92.37 2.59 54
21 02/14/2025 13:25:15 74.88, -16.38 87.61 02/14/2025 13:26:15 74.86, -16.50 87.60 3.80 60
22 02/14/2025 14:14:34 -74.91, 151.20 92.37 02/14/2025 14:15:42 -74.89, 151.21 92.39 2.32 68
23 02/14/2025 15:03:55 74.97, -41.29 87.68 02/14/2025 15:05:07 74.92, -41.08 87.63 8.31 72
24 02/14/2025 15:53:20 -75.31, 125.47 92.00 02/14/2025 15:54:28 -75.25, 127.43 92.05 55.87 68
25 02/14/2025 16:42:45 75.56, -67.60 88.25 02/14/2025 16:43:48 75.53, -64.16 88.24 95.79 63



Historial Predications of SNOs between AQUA and LANDSAT-8
